NORTHEAST SUFFOLK  -  Frost Advisory Frost Advisory        NORTHWEST SUFFOLK  -  Frost Advisory Frost Advisory        SOUTHEAST SUFFOLK  -  Frost Advisory Frost Advisory        SOUTHWEST SUFFOLK  -  Frost Advisory Frost Advisory      

Active alerts

Northwest Suffolk
  Details for Northwest Suffolk Frost Advisory
Southwest Suffolk
  Details for Southwest Suffolk Frost Advisory
Northeast Suffolk
  Details for Northeast Suffolk Frost Advisory
Southeast Suffolk
  Details for Southeast Suffolk Frost Advisory


WXM80 ListenWXM80 Stop

You find our weather info also at:

UK Metoffice

WeatherCloud

Weather Underground

Northeastern Weather Network

AWEKAS

Citizen Weather Observer Program (CWOP)

HAMweather, WeatherForYou, PWS Weather


Weather Underground History page Text

Daily Summary for September 30, 2017 Units:  Both    English   Metric
« Previous Day
Next Day »
Daily Weekly Monthly Yearly Custom
  High: Low: Average:
Temperature: 59.7 °F /  15.4 °C 53.8 °F /  12.1 °C 56.5 °F /  13.6 °C
Dew Point: 56.7 °F /  13.7 °C 49.4 °F /  9.7 °C 53.4 °F /  11.9 °C
Humidity: 96 % 81 % 89 %
Wind Speed: 12.7 mph /  20.4 km/h - 4.5 mph /  7.2 km/h
Wind Gust: 20.7 mph /  33.3 km/h - -
Wind:- - East
Pressure: 30.22 in /  1023.2 hPa 29.87 in /  1011.4 hPa -
Precipitation: 1.45 in /  36.83 mm    
Historical Graphs
 
 
Tabular Data for September 30, 2017
Time Temperature Dew Point Pressure Wind Wind Speed Wind Gust Humidity Rainfall Rate (Hourly)
00:04 54.4 °F /  12.4 °C 50.3 °F /  10.2 °C 29.90 in /  1012.4 hPa Calm     86 % 0.00 in /  0 mm
00:09 54.4 °F /  12.4 °C 50.3 °F /  10.2 °C 29.90 in /  1012.4 hPa Calm     86 % 0.00 in /  0 mm
00:14 54.3 °F /  12.4 °C 49.9 °F /  9.9 °C 29.90 in /  1012.4 hPa Calm     85 % 0.00 in /  0 mm
00:19 54.4 °F /  12.4 °C 50.0 °F /  10 °C 29.90 in /  1012.4 hPa Calm     85 % 0.00 in /  0 mm
00:24 54.3 °F /  12.4 °C 49.6 °F /  9.8 °C 29.90 in /  1012.4 hPa Calm     84 % 0.00 in /  0 mm
00:29 54.3 °F /  12.4 °C 49.6 °F /  9.8 °C 29.90 in /  1012.4 hPa Calm     84 % 0.00 in /  0 mm
00:34 54.2 °F /  12.3 °C 49.5 °F /  9.7 °C 29.90 in /  1012.4 hPa Calm     84 % 0.00 in /  0 mm
00:39 54.2 °F /  12.3 °C 49.5 °F /  9.7 °C 29.90 in /  1012.4 hPa Calm     84 % 0.00 in /  0 mm
00:44 54.2 °F /  12.3 °C 49.5 °F /  9.7 °C 29.90 in /  1012.4 hPa Calm     84 % 0.00 in /  0 mm
00:49 54.1 °F /  12.3 °C 49.4 °F /  9.7 °C 29.90 in /  1012.4 hPa Calm     84 % 0.00 in /  0 mm
00:54 54.1 °F /  12.3 °C 49.7 °F /  9.8 °C 29.90 in /  1012.4 hPa Calm     85 % 0.00 in /  0 mm
00:59 54.1 °F /  12.3 °C 49.7 °F /  9.8 °C 29.91 in /  1012.8 hPa Calm     85 % 0.00 in /  0 mm
01:04 54.1 °F /  12.3 °C 49.7 °F /  9.8 °C 29.91 in /  1012.8 hPa Calm     85 % 0.00 in /  0 mm
01:09 54.2 °F /  12.3 °C 49.8 °F /  9.9 °C 29.91 in /  1012.8 hPa Calm     85 % 0.00 in /  0 mm
01:10 54.2 °F /  12.3 °C 49.8 °F /  9.9 °C 29.91 in /  1012.8 hPa Calm     85 % 0.00 in /  0 mm
01:16 54.3 °F /  12.4 °C 50.2 °F /  10.1 °C 29.91 in /  1012.8 hPa Calm     86 % 0.00 in /  0 mm
01:21 54.5 °F /  12.5 °C 50.4 °F /  10.2 °C 29.91 in /  1012.8 hPa Calm     86 % 0.00 in /  0 mm
01:26 54.7 °F /  12.6 °C 50.9 °F /  10.5 °C 29.91 in /  1012.8 hPa Calm     87 % 0.00 in /  0 mm
01:31 54.9 °F /  12.7 °C 51.4 °F /  10.8 °C 29.91 in /  1012.8 hPa Calm     88 % 0.00 in /  0 mm
01:36 55.0 °F /  12.8 °C 51.5 °F /  10.8 °C 29.91 in /  1012.8 hPa Calm     88 % 0.00 in /  0 mm
01:41 55.1 °F /  12.8 °C 51.6 °F /  10.9 °C 29.90 in /  1012.4 hPa Calm     88 % 0.00 in /  0 mm
01:46 55.2 °F /  12.9 °C 51.7 °F /  10.9 °C 29.91 in /  1012.8 hPa Calm     88 % 0.00 in /  0 mm
01:51 55.3 °F /  12.9 °C 51.8 °F /  11 °C 29.91 in /  1012.8 hPa Calm     88 % 0.00 in /  0 mm
01:56 55.4 °F /  13 °C 51.9 °F /  11.1 °C 29.91 in /  1012.8 hPa Calm     88 % 0.00 in /  0 mm
02:01 55.5 °F /  13.1 °C 52.0 °F /  11.1 °C 29.91 in /  1012.8 hPa Calm     88 % 0.00 in /  0 mm
02:06 55.5 °F /  13.1 °C 52.0 °F /  11.1 °C 29.91 in /  1012.8 hPa Calm     88 % 0.00 in /  0 mm
02:11 55.6 °F /  13.1 °C 52.1 °F /  11.2 °C 29.91 in /  1012.8 hPa Calm     88 % 0.00 in /  0 mm
02:16 55.7 °F /  13.2 °C 52.2 °F /  11.2 °C 29.91 in /  1012.8 hPa Calm     88 % 0.00 in /  0 mm
02:21 55.7 °F /  13.2 °C 52.5 °F /  11.4 °C 29.91 in /  1012.8 hPa Calm     89 % 0.00 in /  0 mm
02:26 55.8 °F /  13.2 °C 52.6 °F /  11.4 °C 29.91 in /  1012.8 hPa Calm     89 % 0.00 in /  0 mm
02:31 55.9 °F /  13.3 °C 52.7 °F /  11.5 °C 29.90 in /  1012.4 hPa Calm     89 % 0.00 in /  0 mm
02:36 55.9 °F /  13.3 °C 52.7 °F /  11.5 °C 29.90 in /  1012.4 hPa Calm     89 % 0.00 in /  0 mm
02:41 55.9 °F /  13.3 °C 52.7 °F /  11.5 °C 29.90 in /  1012.4 hPa Calm     89 % 0.00 in /  0 mm
02:46 56.0 °F /  13.3 °C 52.8 °F /  11.6 °C 29.89 in /  1012.1 hPa Calm     89 % 0.00 in /  0 mm
02:51 56.0 °F /  13.3 °C 52.8 °F /  11.6 °C 29.89 in /  1012.1 hPa Calm     89 % 0.00 in /  0 mm
02:56 56.0 °F /  13.3 °C 52.8 °F /  11.6 °C 29.88 in /  1011.7 hPa Calm     89 % 0.00 in /  0 mm
03:01 56.1 °F /  13.4 °C 52.9 °F /  11.6 °C 29.88 in /  1011.7 hPa Calm     89 % 0.00 in /  0 mm
03:06 56.1 °F /  13.4 °C 52.9 °F /  11.6 °C 29.88 in /  1011.7 hPa Calm     89 % 0.00 in /  0 mm
03:11 56.1 °F /  13.4 °C 52.9 °F /  11.6 °C 29.88 in /  1011.7 hPa Calm     89 % 0.00 in /  0 mm
03:16 56.1 °F /  13.4 °C 52.9 °F /  11.6 °C 29.88 in /  1011.7 hPa Calm     89 % 0.00 in /  0 mm
03:21 56.1 °F /  13.4 °C 52.9 °F /  11.6 °C 29.88 in /  1011.7 hPa Calm     89 % 0.00 in /  0 mm
03:26 56.2 °F /  13.4 °C 53.0 °F /  11.7 °C 29.89 in /  1012.1 hPa Calm     89 % 0.00 in /  0 mm
03:31 56.2 °F /  13.4 °C 53.0 °F /  11.7 °C 29.88 in /  1011.7 hPa Calm     89 % 0.00 in /  0 mm
03:36 56.2 °F /  13.4 °C 53.0 °F /  11.7 °C 29.88 in /  1011.7 hPa Calm     89 % 0.00 in /  0 mm
03:41 56.1 °F /  13.4 °C 53.2 °F /  11.8 °C 29.88 in /  1011.7 hPa Calm     90 % 0.00 in /  0 mm
03:46 56.1 °F /  13.4 °C 53.2 °F /  11.8 °C 29.88 in /  1011.7 hPa Calm     90 % 0.00 in /  0 mm
03:51 56.1 °F /  13.4 °C 53.2 °F /  11.8 °C 29.88 in /  1011.7 hPa Calm     90 % 0.00 in /  0 mm
03:56 56.1 °F /  13.4 °C 53.2 °F /  11.8 °C 29.88 in /  1011.7 hPa Calm     90 % 0.00 in /  0 mm
04:01 56.0 °F /  13.3 °C 53.1 °F /  11.7 °C 29.88 in /  1011.7 hPa Calm     90 % 0.00 in /  0 mm
04:06 56.0 °F /  13.3 °C 53.1 °F /  11.7 °C 29.87 in /  1011.4 hPa Calm     90 % 0.00 in /  0 mm
04:11 56.0 °F /  13.3 °C 53.1 °F /  11.7 °C 29.87 in /  1011.4 hPa SSE 0.5 mph /  0.8 km/h 1.2 mph /  1.9 km/h 90 % 0.00 in /  0 mm
04:16 56.0 °F /  13.3 °C 53.4 °F /  11.9 °C 29.87 in /  1011.4 hPa Calm     91 % 0.00 in /  0 mm
04:22 56.0 °F /  13.3 °C 53.4 °F /  11.9 °C 29.88 in /  1011.7 hPa Calm   1.0 mph /  1.6 km/h 91 % 0.00 in /  0 mm
04:27 56.1 °F /  13.4 °C 53.8 °F /  12.1 °C 29.88 in /  1011.7 hPa Calm     92 % 0.00 in /  0 mm
04:32 56.1 °F /  13.4 °C 53.8 °F /  12.1 °C 29.88 in /  1011.7 hPa SSE 0.5 mph /  0.8 km/h 1.2 mph /  1.9 km/h 92 % 0.00 in /  0 mm
04:37 56.1 °F /  13.4 °C 53.8 °F /  12.1 °C 29.88 in /  1011.7 hPa Calm     92 % 0.00 in /  0 mm
04:42 56.2 °F /  13.4 °C 53.9 °F /  12.2 °C 29.88 in /  1011.7 hPa SSE 1.3 mph /  2.1 km/h 2.0 mph /  3.2 km/h 92 % 0.00 in /  0 mm
04:47 56.2 °F /  13.4 °C 53.9 °F /  12.2 °C 29.88 in /  1011.7 hPa SSE 0.1 mph /  0.2 km/h 1.2 mph /  1.9 km/h 92 % 0.00 in /  0 mm
04:52 56.2 °F /  13.4 °C 53.9 °F /  12.2 °C 29.88 in /  1011.7 hPa Calm     92 % 0.00 in /  0 mm
04:57 56.2 °F /  13.4 °C 53.9 °F /  12.2 °C 29.88 in /  1011.7 hPa Calm     92 % 0.00 in /  0 mm
05:02 56.2 °F /  13.4 °C 53.6 °F /  12 °C 29.88 in /  1011.7 hPa Calm     91 % 0.00 in /  0 mm
05:07 56.1 °F /  13.4 °C 53.5 °F /  11.9 °C 29.88 in /  1011.7 hPa SSE 0.1 mph /  0.2 km/h 2.3 mph /  3.7 km/h 91 % 0.00 in /  0 mm
05:12 56.1 °F /  13.4 °C 53.5 °F /  11.9 °C 29.88 in /  1011.7 hPa Calm     91 % 0.00 in /  0 mm
05:17 56.0 °F /  13.3 °C 53.4 °F /  11.9 °C 29.88 in /  1011.7 hPa Calm     91 % 0.00 in /  0 mm
05:22 55.9 °F /  13.3 °C 53.3 °F /  11.8 °C 29.88 in /  1011.7 hPa Calm     91 % 0.00 in /  0 mm
05:27 55.8 °F /  13.2 °C 53.2 °F /  11.8 °C 29.89 in /  1012.1 hPa Calm     91 % 0.00 in /  0 mm
05:32 55.7 °F /  13.2 °C 53.1 °F /  11.7 °C 29.89 in /  1012.1 hPa Calm     91 % 0.00 in /  0 mm
05:37 55.6 °F /  13.1 °C 53.0 °F /  11.7 °C 29.89 in /  1012.1 hPa Calm     91 % 0.00 in /  0 mm
05:42 55.5 °F /  13.1 °C 52.6 °F /  11.4 °C 29.89 in /  1012.1 hPa Calm     90 % 0.00 in /  0 mm
05:47 55.4 °F /  13 °C 52.5 °F /  11.4 °C 29.89 in /  1012.1 hPa Calm     90 % 0.00 in /  0 mm
05:52 55.3 °F /  12.9 °C 52.7 °F /  11.5 °C 29.89 in /  1012.1 hPa Calm     91 % 0.00 in /  0 mm
05:57 55.3 °F /  12.9 °C 52.7 °F /  11.5 °C 29.89 in /  1012.1 hPa Calm     91 % 0.00 in /  0 mm
06:02 55.1 °F /  12.8 °C 52.5 °F /  11.4 °C 29.90 in /  1012.4 hPa Calm     91 % 0.00 in /  0 mm
06:07 55.1 °F /  12.8 °C 52.2 °F /  11.2 °C 29.90 in /  1012.4 hPa Calm     90 % 0.00 in /  0 mm
06:12 54.9 °F /  12.7 °C 52.0 °F /  11.1 °C 29.90 in /  1012.4 hPa Calm     90 % 0.00 in /  0 mm
06:17 54.8 °F /  12.7 °C 51.9 °F /  11.1 °C 29.90 in /  1012.4 hPa SSE 0.1 mph /  0.2 km/h 1.2 mph /  1.9 km/h 90 % 0.00 in /  0 mm
06:23 54.7 °F /  12.6 °C 52.1 °F /  11.2 °C 29.90 in /  1012.4 hPa Calm     91 % 0.00 in /  0 mm
06:28 54.6 °F /  12.6 °C 52.0 °F /  11.1 °C 29.90 in /  1012.4 hPa Calm     91 % 0.00 in /  0 mm
06:33 54.5 °F /  12.5 °C 51.9 °F /  11.1 °C 29.90 in /  1012.4 hPa Calm     91 % 0.00 in /  0 mm
06:38 54.3 °F /  12.4 °C 51.7 °F /  10.9 °C 29.90 in /  1012.4 hPa Calm     91 % 0.00 in /  0 mm
06:43 54.2 °F /  12.3 °C 51.6 °F /  10.9 °C 29.90 in /  1012.4 hPa Calm   1.2 mph /  1.9 km/h 91 % 0.00 in /  0 mm
06:48 54.1 °F /  12.3 °C 51.5 °F /  10.8 °C 29.91 in /  1012.8 hPa SSE 0.1 mph /  0.2 km/h 1.2 mph /  1.9 km/h 91 % 0.00 in /  0 mm
06:53 54.0 °F /  12.2 °C 51.4 °F /  10.8 °C 29.90 in /  1012.4 hPa Calm   1.2 mph /  1.9 km/h 91 % 0.00 in /  0 mm
06:58 53.9 °F /  12.2 °C 51.6 °F /  10.9 °C 29.90 in /  1012.4 hPa Calm     92 % 0.00 in /  0 mm
07:03 53.9 °F /  12.2 °C 51.6 °F /  10.9 °C 29.90 in /  1012.4 hPa SSE 0.1 mph /  0.2 km/h 1.2 mph /  1.9 km/h 92 % 0.00 in /  0 mm
07:13 53.8 °F /  12.1 °C 51.8 °F /  11 °C 29.91 in /  1012.8 hPa Calm     93 % 0.00 in /  0 mm
07:18 53.9 °F /  12.2 °C 51.9 °F /  11.1 °C 29.91 in /  1012.8 hPa Calm     93 % 0.00 in /  0 mm
07:23 54.2 °F /  12.3 °C 52.5 °F /  11.4 °C 29.91 in /  1012.8 hPa Calm     94 % 0.00 in /  0 mm
07:28 54.5 °F /  12.5 °C 53.1 °F /  11.7 °C 29.91 in /  1012.8 hPa North 1.8 mph /  2.9 km/h 3.5 mph /  5.6 km/h 95 % 0.00 in /  0 mm
07:33 55.1 °F /  12.8 °C 53.7 °F /  12.1 °C 29.91 in /  1012.8 hPa NNW 0.5 mph /  0.8 km/h 2.3 mph /  3.7 km/h 95 % 0.00 in /  0 mm
07:38 55.4 °F /  13 °C 54.3 °F /  12.4 °C 29.92 in /  1013.1 hPa NE 0.7 mph /  1.1 km/h 2.0 mph /  3.2 km/h 96 % 0.00 in /  0 mm
07:43 55.9 °F /  13.3 °C 54.8 °F /  12.7 °C 29.92 in /  1013.1 hPa NNW 3.9 mph /  6.3 km/h 9.0 mph /  14.5 km/h 96 % 0.00 in /  0 mm
07:48 56.6 °F /  13.7 °C 55.5 °F /  13.1 °C 29.92 in /  1013.1 hPa NNE 6.2 mph /  10 km/h 9.0 mph /  14.5 km/h 96 % 0.00 in /  0 mm
07:53 57.0 °F /  13.9 °C 55.9 °F /  13.3 °C 29.92 in /  1013.1 hPa North 6.0 mph /  9.7 km/h 9.2 mph /  14.8 km/h 96 % 0.00 in /  0 mm
07:58 57.3 °F /  14.1 °C 56.2 °F /  13.4 °C 29.92 in /  1013.1 hPa NNW 8.2 mph /  13.2 km/h 12.7 mph /  20.4 km/h 96 % 0.00 in /  0 mm
08:03 57.5 °F /  14.2 °C 56.4 °F /  13.6 °C 29.92 in /  1013.1 hPa NNE 2.7 mph /  4.3 km/h 6.9 mph /  11.1 km/h 96 % 0.00 in /  0 mm
08:08 57.6 °F /  14.2 °C 56.5 °F /  13.6 °C 29.92 in /  1013.1 hPa NNE 3.4 mph /  5.5 km/h 5.8 mph /  9.3 km/h 96 % 0.00 in /  0 mm
08:14 57.8 °F /  14.3 °C 56.4 °F /  13.6 °C 29.92 in /  1013.1 hPa NE 7.9 mph /  12.7 km/h 9.0 mph /  14.5 km/h 95 % 0.00 in /  0 mm
08:19 57.9 °F /  14.4 °C 56.5 °F /  13.6 °C 29.92 in /  1013.1 hPa NE 4.9 mph /  7.9 km/h 7.0 mph /  11.3 km/h 95 % 0.00 in /  0 mm
08:24 58.1 °F /  14.5 °C 56.7 °F /  13.7 °C 29.92 in /  1013.1 hPa North 4.6 mph /  7.4 km/h 8.1 mph /  13 km/h 95 % 0.00 in /  0 mm
08:29 58.2 °F /  14.6 °C 56.5 °F /  13.6 °C 29.92 in /  1013.1 hPa North 5.8 mph /  9.3 km/h 9.2 mph /  14.8 km/h 94 % 0.00 in /  0 mm
08:34 58.2 °F /  14.6 °C 56.5 °F /  13.6 °C 29.92 in /  1013.1 hPa NNE 6.1 mph /  9.8 km/h 9.2 mph /  14.8 km/h 94 % 0.00 in /  0 mm
08:39 58.3 °F /  14.6 °C 56.6 °F /  13.7 °C 29.93 in /  1013.4 hPa NNE 5.0 mph /  8 km/h 8.1 mph /  13 km/h 94 % 0.00 in /  0 mm
08:44 58.4 °F /  14.7 °C 56.4 °F /  13.6 °C 29.93 in /  1013.4 hPa NNE 5.2 mph /  8.4 km/h 6.9 mph /  11.1 km/h 93 % 0.00 in /  0 mm
08:49 58.4 °F /  14.7 °C 56.4 °F /  13.6 °C 29.94 in /  1013.8 hPa North 1.0 mph /  1.6 km/h 3.5 mph /  5.6 km/h 93 % 0.00 in /  0 mm
08:54 58.4 °F /  14.7 °C 56.4 °F /  13.6 °C 29.93 in /  1013.4 hPa North 0.8 mph /  1.3 km/h 3.5 mph /  5.6 km/h 93 % 0.00 in /  0 mm
08:59 58.4 °F /  14.7 °C 56.4 °F /  13.6 °C 29.94 in /  1013.8 hPa NE 2.5 mph /  4 km/h 6.0 mph /  9.7 km/h 93 % 0.00 in /  0 mm
09:04 58.4 °F /  14.7 °C 56.1 °F /  13.4 °C 29.93 in /  1013.4 hPa WNW 1.0 mph /  1.6 km/h 4.0 mph /  6.4 km/h 92 % 0.00 in /  0 mm
09:09 58.3 °F /  14.6 °C 56.0 °F /  13.3 °C 29.94 in /  1013.8 hPa West 5.0 mph /  8 km/h 6.9 mph /  11.1 km/h 92 % 0.00 in /  0 mm
09:14 58.3 °F /  14.6 °C 55.7 °F /  13.2 °C 29.94 in /  1013.8 hPa NW 0.9 mph /  1.4 km/h 2.3 mph /  3.7 km/h 91 % 0.00 in /  0 mm
09:19 58.2 °F /  14.6 °C 55.6 °F /  13.1 °C 29.94 in /  1013.8 hPa WNW 0.4 mph /  0.6 km/h 2.3 mph /  3.7 km/h 91 % 0.01 in /  0.25 mm
09:24 58.2 °F /  14.6 °C 55.6 °F /  13.1 °C 29.94 in /  1013.8 hPa WNW 0.8 mph /  1.3 km/h 2.3 mph /  3.7 km/h 91 % 0.04 in /  1.02 mm
09:29 58.2 °F /  14.6 °C 55.9 °F /  13.3 °C 29.95 in /  1014.1 hPa West 3.3 mph /  5.3 km/h 8.0 mph /  12.9 km/h 92 % 0.07 in /  1.78 mm
09:34 58.0 °F /  14.4 °C 55.7 °F /  13.2 °C 29.94 in /  1013.8 hPa WNW 4.3 mph /  6.9 km/h 11.5 mph /  18.5 km/h 92 % 0.11 in /  2.79 mm
09:39 57.8 °F /  14.3 °C 55.5 °F /  13.1 °C 29.94 in /  1013.8 hPa NNW 0.9 mph /  1.4 km/h 5.8 mph /  9.3 km/h 92 % 0.14 in /  3.56 mm
09:44 57.6 °F /  14.2 °C 55.6 °F /  13.1 °C 29.94 in /  1013.8 hPa NNE 4.7 mph /  7.6 km/h 7.0 mph /  11.3 km/h 93 % 0.18 in /  4.57 mm
09:49 57.5 °F /  14.2 °C 55.5 °F /  13.1 °C 29.94 in /  1013.8 hPa NNW 2.4 mph /  3.9 km/h 5.8 mph /  9.3 km/h 93 % 0.21 in /  5.33 mm
09:54 57.5 °F /  14.2 °C 55.8 °F /  13.2 °C 29.95 in /  1014.1 hPa NNE 2.4 mph /  3.9 km/h 5.0 mph /  8 km/h 94 % 0.24 in /  6.1 mm
09:59 57.5 °F /  14.2 °C 55.8 °F /  13.2 °C 29.95 in /  1014.1 hPa NNE 1.2 mph /  1.9 km/h 4.6 mph /  7.4 km/h 94 % 0.27 in /  6.86 mm
10:04 57.4 °F /  14.1 °C 55.7 °F /  13.2 °C 29.95 in /  1014.1 hPa North 5.7 mph /  9.2 km/h 7.0 mph /  11.3 km/h 94 % 0.30 in /  7.62 mm
10:09 57.2 °F /  14 °C 55.5 °F /  13.1 °C 29.95 in /  1014.1 hPa NNE 4.4 mph /  7.1 km/h 6.9 mph /  11.1 km/h 94 % 0.32 in /  8.13 mm
10:15 57.1 °F /  13.9 °C 55.7 °F /  13.2 °C 29.95 in /  1014.1 hPa NNW 5.5 mph /  8.9 km/h 8.1 mph /  13 km/h 95 % 0.35 in /  8.89 mm
10:20 57.0 °F /  13.9 °C 55.6 °F /  13.1 °C 29.95 in /  1014.1 hPa North 5.0 mph /  8 km/h 10.4 mph /  16.7 km/h 95 % 0.37 in /  9.4 mm
10:25 56.8 °F /  13.8 °C 55.4 °F /  13 °C 29.95 in /  1014.1 hPa NNE 3.2 mph /  5.1 km/h 6.9 mph /  11.1 km/h 95 % 0.35 in /  8.89 mm
10:30 56.7 °F /  13.7 °C 55.3 °F /  12.9 °C 29.96 in /  1014.4 hPa NW 4.6 mph /  7.4 km/h 8.0 mph /  12.9 km/h 95 % 0.34 in /  8.64 mm
10:35 56.5 °F /  13.6 °C 55.1 °F /  12.8 °C 29.97 in /  1014.8 hPa NNW 4.5 mph /  7.2 km/h 11.5 mph /  18.5 km/h 95 % 0.32 in /  8.13 mm
10:40 56.3 °F /  13.5 °C 54.6 °F /  12.6 °C 29.97 in /  1014.8 hPa NW 1.6 mph /  2.6 km/h 10.4 mph /  16.7 km/h 94 % 0.31 in /  7.87 mm
10:45 56.1 °F /  13.4 °C 54.4 °F /  12.4 °C 29.97 in /  1014.8 hPa North 4.9 mph /  7.9 km/h 12.0 mph /  19.3 km/h 94 % 0.30 in /  7.62 mm
10:50 56.0 °F /  13.3 °C 54.6 °F /  12.6 °C 29.97 in /  1014.8 hPa NNW 3.7 mph /  6 km/h 8.1 mph /  13 km/h 95 % 0.28 in /  7.11 mm
10:55 56.0 °F /  13.3 °C 54.6 °F /  12.6 °C 29.97 in /  1014.8 hPa ENE 7.1 mph /  11.4 km/h 12.0 mph /  19.3 km/h 95 % 0.28 in /  7.11 mm
11:00 56.2 °F /  13.4 °C 55.1 °F /  12.8 °C 29.97 in /  1014.8 hPa NNE 7.8 mph /  12.6 km/h 12.7 mph /  20.4 km/h 96 % 0.27 in /  6.86 mm
11:05 56.4 °F /  13.6 °C 55.3 °F /  12.9 °C 29.97 in /  1014.8 hPa North 3.5 mph /  5.6 km/h 6.9 mph /  11.1 km/h 96 % 0.28 in /  7.11 mm
11:10 56.5 °F /  13.6 °C 55.4 °F /  13 °C 29.97 in /  1014.8 hPa NNE 6.0 mph /  9.7 km/h 11.5 mph /  18.5 km/h 96 % 0.28 in /  7.11 mm
11:15 56.7 °F /  13.7 °C 55.6 °F /  13.1 °C 29.97 in /  1014.8 hPa NNE 6.2 mph /  10 km/h 10.4 mph /  16.7 km/h 96 % 0.28 in /  7.11 mm
11:20 56.8 °F /  13.8 °C 55.7 °F /  13.2 °C 29.97 in /  1014.8 hPa NNE 4.1 mph /  6.6 km/h 10.4 mph /  16.7 km/h 96 % 0.28 in /  7.11 mm
11:25 56.9 °F /  13.8 °C 55.8 °F /  13.2 °C 29.97 in /  1014.8 hPa NNE 6.7 mph /  10.8 km/h 9.2 mph /  14.8 km/h 96 % 0.28 in /  7.11 mm
11:30 57.0 °F /  13.9 °C 55.9 °F /  13.3 °C 29.97 in /  1014.8 hPa NNE 6.7 mph /  10.8 km/h 12.7 mph /  20.4 km/h 96 % 0.29 in /  7.37 mm
11:35 57.1 °F /  13.9 °C 56.0 °F /  13.3 °C 29.97 in /  1014.8 hPa NNE 6.7 mph /  10.8 km/h 11.5 mph /  18.5 km/h 96 % 0.30 in /  7.62 mm
11:40 57.1 °F /  13.9 °C 56.0 °F /  13.3 °C 29.98 in /  1015.1 hPa NNE 6.3 mph /  10.1 km/h 8.1 mph /  13 km/h 96 % 0.30 in /  7.62 mm
11:45 57.1 °F /  13.9 °C 56.0 °F /  13.3 °C 29.98 in /  1015.1 hPa NNE 7.5 mph /  12.1 km/h 11.5 mph /  18.5 km/h 96 % 0.30 in /  7.62 mm
11:50 57.2 °F /  14 °C 56.1 °F /  13.4 °C 29.98 in /  1015.1 hPa NNW 2.5 mph /  4 km/h 8.1 mph /  13 km/h 96 % 0.31 in /  7.87 mm
11:55 57.2 °F /  14 °C 56.1 °F /  13.4 °C 29.99 in /  1015.5 hPa North 4.7 mph /  7.6 km/h 6.9 mph /  11.1 km/h 96 % 0.30 in /  7.62 mm
12:00 57.3 °F /  14.1 °C 56.2 °F /  13.4 °C 29.99 in /  1015.5 hPa NNE 6.4 mph /  10.3 km/h 12.7 mph /  20.4 km/h 96 % 0.31 in /  7.87 mm
12:05 57.4 °F /  14.1 °C 56.3 °F /  13.5 °C 29.99 in /  1015.5 hPa NNE 6.9 mph /  11.1 km/h 19.6 mph /  31.5 km/h 96 % 0.30 in /  7.62 mm
12:10 57.3 °F /  14.1 °C 56.2 °F /  13.4 °C 29.99 in /  1015.5 hPa NNE 7.8 mph /  12.6 km/h 11.5 mph /  18.5 km/h 96 % 0.29 in /  7.37 mm
12:11 57.3 °F /  14.1 °C 56.2 °F /  13.4 °C 29.99 in /  1015.5 hPa North 7.0 mph /  11.3 km/h 12.0 mph /  19.3 km/h 96 % 0.01 in /  0.25 mm
12:16 57.2 °F /  14 °C 56.1 °F /  13.4 °C 29.99 in /  1015.5 hPa North 9.0 mph /  14.5 km/h 16.0 mph /  25.7 km/h 96 % 0.00 in /  0 mm
12:21 57.0 °F /  13.9 °C 55.9 °F /  13.3 °C 30.00 in /  1015.8 hPa NNE 8.0 mph /  12.9 km/h 16.0 mph /  25.7 km/h 96 % 0.00 in /  0 mm
12:26 56.9 °F /  13.8 °C 55.8 °F /  13.2 °C 30.00 in /  1015.8 hPa NNE 8.0 mph /  12.9 km/h 17.0 mph /  27.4 km/h 96 % 0.01 in /  0.25 mm
12:31 56.7 °F /  13.7 °C 55.6 °F /  13.1 °C 30.00 in /  1015.8 hPa NNE 5.0 mph /  8 km/h 14.0 mph /  22.5 km/h 96 % 0.01 in /  0.25 mm
12:36 56.6 °F /  13.7 °C 55.4 °F /  13 °C 30.00 in /  1015.8 hPa NNE 7.0 mph /  11.3 km/h 13.0 mph /  20.9 km/h 96 % 0.00 in /  0 mm
12:41 56.4 °F /  13.6 °C 55.3 °F /  12.9 °C 30.01 in /  1016.1 hPa NNE 8.0 mph /  12.9 km/h 13.0 mph /  20.9 km/h 96 % 0.00 in /  0 mm
12:46 56.3 °F /  13.5 °C 54.9 °F /  12.7 °C 30.01 in /  1016.1 hPa NNE 8.0 mph /  12.9 km/h 14.0 mph /  22.5 km/h 95 % 0.00 in /  0 mm
12:51 56.1 °F /  13.4 °C 54.7 °F /  12.6 °C 30.01 in /  1016.1 hPa NNE 6.0 mph /  9.7 km/h 13.0 mph /  20.9 km/h 95 % 0.00 in /  0 mm
12:56 56.0 °F /  13.3 °C 54.6 °F /  12.6 °C 30.01 in /  1016.1 hPa North 3.0 mph /  4.8 km/h 12.0 mph /  19.3 km/h 95 % 0.00 in /  0 mm
13:00 56.0 °F /  13.3 °C 54.9 °F /  12.7 °C 30.00 in /  1015.8 hPa NNW 4.0 mph /  6.4 km/h 7.0 mph /  11.3 km/h 96 % 0.26 in /  6.6 mm
13:06 56.1 °F /  13.4 °C 55.0 °F /  12.8 °C 30.01 in /  1016.1 hPa NNE 7.0 mph /  11.3 km/h 10.0 mph /  16.1 km/h 96 % 0.00 in /  0 mm
13:11 56.2 °F /  13.4 °C 55.1 °F /  12.8 °C 30.01 in /  1016.1 hPa NNE 7.0 mph /  11.3 km/h 12.0 mph /  19.3 km/h 96 % 0.00 in /  0 mm
13:16 56.2 °F /  13.4 °C 55.1 °F /  12.8 °C 30.01 in /  1016.1 hPa NNE 5.0 mph /  8 km/h 12.0 mph /  19.3 km/h 96 % 0.00 in /  0 mm
13:21 56.2 °F /  13.4 °C 55.1 °F /  12.8 °C 30.01 in /  1016.1 hPa NNE 6.0 mph /  9.7 km/h 14.0 mph /  22.5 km/h 96 % 0.00 in /  0 mm
13:26 56.1 °F /  13.4 °C 54.7 °F /  12.6 °C 30.01 in /  1016.1 hPa NNE 8.0 mph /  12.9 km/h 16.0 mph /  25.7 km/h 95 % 0.01 in /  0.25 mm
13:31 56.0 °F /  13.3 °C 54.6 °F /  12.6 °C 30.01 in /  1016.1 hPa NNE 9.0 mph /  14.5 km/h 14.0 mph /  22.5 km/h 95 % 0.00 in /  0 mm
13:36 56.0 °F /  13.3 °C 54.6 °F /  12.6 °C 30.01 in /  1016.1 hPa NNE 5.0 mph /  8 km/h 12.0 mph /  19.3 km/h 95 % 0.00 in /  0 mm
13:41 56.1 °F /  13.4 °C 55.0 °F /  12.8 °C 30.01 in /  1016.1 hPa NNE 5.0 mph /  8 km/h 14.0 mph /  22.5 km/h 96 % 0.01 in /  0.25 mm
13:46 56.1 °F /  13.4 °C 54.7 °F /  12.6 °C 30.01 in /  1016.1 hPa NNE 8.5 mph /  13.7 km/h 17.3 mph /  27.8 km/h 95 % 0.22 in /  5.59 mm
13:49 56.2 °F /  13.4 °C 54.8 °F /  12.7 °C 30.01 in /  1016.1 hPa NNE 10.7 mph /  17.2 km/h 17.3 mph /  27.8 km/h 95 % 0.21 in /  5.33 mm
13:54 56.2 °F /  13.4 °C 54.8 °F /  12.7 °C 30.01 in /  1016.1 hPa NNE 8.7 mph /  14 km/h 12.7 mph /  20.4 km/h 95 % 0.22 in /  5.59 mm
13:59 56.3 °F /  13.5 °C 54.9 °F /  12.7 °C 30.01 in /  1016.1 hPa North 8.9 mph /  14.3 km/h 15.0 mph /  24.1 km/h 95 % 0.20 in /  5.08 mm
14:04 56.3 °F /  13.5 °C 54.9 °F /  12.7 °C 30.01 in /  1016.1 hPa NE 9.6 mph /  15.4 km/h 16.1 mph /  25.9 km/h 95 % 0.19 in /  4.83 mm
14:09 56.5 °F /  13.6 °C 55.1 °F /  12.8 °C 30.01 in /  1016.1 hPa NE 8.5 mph /  13.7 km/h 13.8 mph /  22.2 km/h 95 % 0.19 in /  4.83 mm
14:14 56.6 °F /  13.7 °C 55.2 °F /  12.9 °C 30.01 in /  1016.1 hPa NNE 7.3 mph /  11.7 km/h 12.7 mph /  20.4 km/h 95 % 0.19 in /  4.83 mm
14:19 56.6 °F /  13.7 °C 54.9 °F /  12.7 °C 30.01 in /  1016.1 hPa NNE 5.5 mph /  8.9 km/h 10.0 mph /  16.1 km/h 94 % 0.18 in /  4.57 mm
14:24 56.7 °F /  13.7 °C 55.0 °F /  12.8 °C 30.01 in /  1016.1 hPa North 9.5 mph /  15.3 km/h 16.0 mph /  25.7 km/h 94 % 0.17 in /  4.32 mm
14:29 56.8 °F /  13.8 °C 55.1 °F /  12.8 °C 30.01 in /  1016.1 hPa NNE 9.7 mph /  15.6 km/h 14.0 mph /  22.5 km/h 94 % 0.16 in /  4.06 mm
14:34 56.9 °F /  13.8 °C 55.2 °F /  12.9 °C 30.01 in /  1016.1 hPa NNE 10.1 mph /  16.3 km/h 17.3 mph /  27.8 km/h 94 % 0.16 in /  4.06 mm
14:39 57.0 °F /  13.9 °C 55.3 °F /  12.9 °C 30.01 in /  1016.1 hPa North 12.7 mph /  20.4 km/h 18.4 mph /  29.6 km/h 94 % 0.15 in /  3.81 mm
14:44 57.1 °F /  13.9 °C 55.4 °F /  13 °C 30.02 in /  1016.5 hPa NNE 7.0 mph /  11.3 km/h 16.1 mph /  25.9 km/h 94 % 0.14 in /  3.56 mm
14:49 57.2 °F /  14 °C 55.5 °F /  13.1 °C 30.02 in /  1016.5 hPa North 8.9 mph /  14.3 km/h 20.7 mph /  33.3 km/h 94 % 0.14 in /  3.56 mm
14:54 57.3 °F /  14.1 °C 55.6 °F /  13.1 °C 30.03 in /  1016.8 hPa NE 8.6 mph /  13.8 km/h 11.5 mph /  18.5 km/h 94 % 0.12 in /  3.05 mm
14:59 57.3 °F /  14.1 °C 55.3 °F /  12.9 °C 30.03 in /  1016.8 hPa NNE 5.6 mph /  9 km/h 10.4 mph /  16.7 km/h 93 % 0.12 in /  3.05 mm
15:04 57.5 °F /  14.2 °C 55.8 °F /  13.2 °C 30.03 in /  1016.8 hPa NNE 7.3 mph /  11.7 km/h 10.4 mph /  16.7 km/h 94 % 0.12 in /  3.05 mm
15:10 57.5 °F /  14.2 °C 55.8 °F /  13.2 °C 30.03 in /  1016.8 hPa NE 7.5 mph /  12.1 km/h 12.0 mph /  19.3 km/h 94 % 0.10 in /  2.54 mm
15:15 57.6 °F /  14.2 °C 55.6 °F /  13.1 °C 30.03 in /  1016.8 hPa North 7.3 mph /  11.7 km/h 13.0 mph /  20.9 km/h 93 % 0.09 in /  2.29 mm
15:20 57.7 °F /  14.3 °C 55.7 °F /  13.2 °C 30.03 in /  1016.8 hPa NE 7.1 mph /  11.4 km/h 12.0 mph /  19.3 km/h 93 % 0.08 in /  2.03 mm
15:25 57.8 °F /  14.3 °C 55.5 °F /  13.1 °C 30.03 in /  1016.8 hPa NE 8.4 mph /  13.5 km/h 12.7 mph /  20.4 km/h 92 % 0.07 in /  1.78 mm
15:30 58.0 °F /  14.4 °C 55.4 °F /  13 °C 30.03 in /  1016.8 hPa NNE 8.6 mph /  13.8 km/h 17.3 mph /  27.8 km/h 91 % 0.06 in /  1.52 mm
15:35 58.1 °F /  14.5 °C 55.8 °F /  13.2 °C 30.03 in /  1016.8 hPa North 8.5 mph /  13.7 km/h 11.5 mph /  18.5 km/h 92 % 0.05 in /  1.27 mm
15:40 58.2 °F /  14.6 °C 55.3 °F /  12.9 °C 30.03 in /  1016.8 hPa North 5.1 mph /  8.2 km/h 15.0 mph /  24.1 km/h 90 % 0.04 in /  1.02 mm
15:45 58.4 °F /  14.7 °C 55.2 °F /  12.9 °C 30.04 in /  1017.2 hPa NE 6.8 mph /  10.9 km/h 12.0 mph /  19.3 km/h 89 % 0.03 in /  0.76 mm
15:50 58.5 °F /  14.7 °C 55.3 °F /  12.9 °C 30.03 in /  1016.8 hPa NE 8.9 mph /  14.3 km/h 16.1 mph /  25.9 km/h 89 % 0.02 in /  0.51 mm
15:55 58.7 °F /  14.8 °C 55.2 °F /  12.9 °C 30.04 in /  1017.2 hPa NNE 9.5 mph /  15.3 km/h 12.7 mph /  20.4 km/h 88 % 0.01 in /  0.25 mm
16:00 58.8 °F /  14.9 °C 54.9 °F /  12.7 °C 30.04 in /  1017.2 hPa NE 5.6 mph /  9 km/h 10.4 mph /  16.7 km/h 87 % 0.01 in /  0.25 mm
16:05 58.9 °F /  14.9 °C 55.0 °F /  12.8 °C 30.04 in /  1017.2 hPa NNE 9.3 mph /  15 km/h 16.0 mph /  25.7 km/h 87 % 0.00 in /  0 mm
16:10 59.0 °F /  15 °C 54.8 °F /  12.7 °C 30.04 in /  1017.2 hPa NNW 7.4 mph /  11.9 km/h 10.4 mph /  16.7 km/h 86 % 0.00 in /  0 mm
16:15 59.0 °F /  15 °C 54.5 °F /  12.5 °C 30.05 in /  1017.5 hPa North 9.9 mph /  15.9 km/h 16.1 mph /  25.9 km/h 85 % 0.00 in /  0 mm
16:20 59.1 °F /  15.1 °C 54.9 °F /  12.7 °C 30.05 in /  1017.5 hPa North 10.6 mph /  17.1 km/h 16.1 mph /  25.9 km/h 86 % 0.00 in /  0 mm
16:25 59.3 °F /  15.2 °C 54.8 °F /  12.7 °C 30.05 in /  1017.5 hPa NNE 6.8 mph /  10.9 km/h 11.5 mph /  18.5 km/h 85 % 0.00 in /  0 mm
16:30 59.4 °F /  15.2 °C 54.9 °F /  12.7 °C 30.05 in /  1017.5 hPa North 8.7 mph /  14 km/h 16.1 mph /  25.9 km/h 85 % 0.00 in /  0 mm
16:35 59.5 °F /  15.3 °C 54.7 °F /  12.6 °C 30.06 in /  1017.8 hPa NNE 12.4 mph /  20 km/h 17.3 mph /  27.8 km/h 84 % 0.00 in /  0 mm
16:40 59.5 °F /  15.3 °C 54.0 °F /  12.2 °C 30.06 in /  1017.8 hPa North 7.3 mph /  11.7 km/h 17.3 mph /  27.8 km/h 82 % 0.00 in /  0 mm
16:45 59.5 °F /  15.3 °C 54.3 °F /  12.4 °C 30.06 in /  1017.8 hPa NNE 5.7 mph /  9.2 km/h 12.0 mph /  19.3 km/h 83 % 0.00 in /  0 mm
16:50 59.5 °F /  15.3 °C 54.3 °F /  12.4 °C 30.06 in /  1017.8 hPa NNE 8.0 mph /  12.9 km/h 15.0 mph /  24.1 km/h 83 % 0.00 in /  0 mm
16:55 59.6 °F /  15.3 °C 54.4 °F /  12.4 °C 30.06 in /  1017.8 hPa ENE 7.0 mph /  11.3 km/h 11.5 mph /  18.5 km/h 83 % 0.00 in /  0 mm
17:01 59.6 °F /  15.3 °C 54.1 °F /  12.3 °C 30.07 in /  1018.2 hPa NE 6.2 mph /  10 km/h 11.5 mph /  18.5 km/h 82 % 0.00 in /  0 mm
17:06 59.7 °F /  15.4 °C 54.2 °F /  12.3 °C 30.07 in /  1018.2 hPa North 8.4 mph /  13.5 km/h 11.5 mph /  18.5 km/h 82 % 0.00 in /  0 mm
17:11 59.6 °F /  15.3 °C 53.8 °F /  12.1 °C 30.08 in /  1018.5 hPa North 10.1 mph /  16.3 km/h 16.0 mph /  25.7 km/h 81 % 0.00 in /  0 mm
17:16 59.5 °F /  15.3 °C 53.7 °F /  12.1 °C 30.08 in /  1018.5 hPa North 9.8 mph /  15.8 km/h 17.3 mph /  27.8 km/h 81 % 0.00 in /  0 mm
17:21 59.5 °F /  15.3 °C 53.7 °F /  12.1 °C 30.08 in /  1018.5 hPa NE 6.2 mph /  10 km/h 11.5 mph /  18.5 km/h 81 % 0.00 in /  0 mm
17:26 59.4 °F /  15.2 °C 53.9 °F /  12.2 °C 30.08 in /  1018.5 hPa NE 8.9 mph /  14.3 km/h 16.1 mph /  25.9 km/h 82 % 0.00 in /  0 mm
17:31 59.4 °F /  15.2 °C 53.9 °F /  12.2 °C 30.09 in /  1018.8 hPa ENE 6.4 mph /  10.3 km/h 8.1 mph /  13 km/h 82 % 0.00 in /  0 mm
17:36 59.3 °F /  15.2 °C 53.8 °F /  12.1 °C 30.09 in /  1018.8 hPa NE 7.9 mph /  12.7 km/h 13.0 mph /  20.9 km/h 82 % 0.00 in /  0 mm
17:41 59.2 °F /  15.1 °C 53.7 °F /  12.1 °C 30.09 in /  1018.8 hPa East 7.4 mph /  11.9 km/h 12.7 mph /  20.4 km/h 82 % 0.00 in /  0 mm
17:46 59.1 °F /  15.1 °C 53.6 °F /  12 °C 30.09 in /  1018.8 hPa NE 7.3 mph /  11.7 km/h 11.5 mph /  18.5 km/h 82 % 0.00 in /  0 mm
17:51 59.0 °F /  15 °C 53.5 °F /  11.9 °C 30.10 in /  1019.2 hPa NE 10.6 mph /  17.1 km/h 17.3 mph /  27.8 km/h 82 % 0.00 in /  0 mm
17:56 58.9 °F /  14.9 °C 53.4 °F /  11.9 °C 30.10 in /  1019.2 hPa North 7.0 mph /  11.3 km/h 11.5 mph /  18.5 km/h 82 % 0.00 in /  0 mm
18:00 58.9 °F /  14.9 °C 53.7 °F /  12.1 °C 30.10 in /  1019.2 hPa North 5.5 mph /  8.9 km/h 10.4 mph /  16.7 km/h 83 % 0.00 in /  0 mm
18:05 58.7 °F /  14.8 °C 53.5 °F /  11.9 °C 30.11 in /  1019.5 hPa NNE 10.1 mph /  16.3 km/h 15.0 mph /  24.1 km/h 83 % 0.00 in /  0 mm
18:10 58.6 °F /  14.8 °C 53.5 °F /  11.9 °C 30.11 in /  1019.5 hPa NE 7.2 mph /  11.6 km/h 12.7 mph /  20.4 km/h 83 % 0.00 in /  0 mm
18:15 58.5 °F /  14.7 °C 53.4 °F /  11.9 °C 30.11 in /  1019.5 hPa NE 10.2 mph /  16.4 km/h 15.0 mph /  24.1 km/h 83 % 0.00 in /  0 mm
18:20 58.4 °F /  14.7 °C 52.9 °F /  11.6 °C 30.12 in /  1019.9 hPa North 10.0 mph /  16.1 km/h 19.6 mph /  31.5 km/h 82 % 0.00 in /  0 mm
18:25 58.3 °F /  14.6 °C 53.2 °F /  11.8 °C 30.12 in /  1019.9 hPa North 7.1 mph /  11.4 km/h 11.5 mph /  18.5 km/h 83 % 0.00 in /  0 mm
18:30 58.2 °F /  14.6 °C 53.1 °F /  11.7 °C 30.12 in /  1019.9 hPa NNE 6.8 mph /  10.9 km/h 13.8 mph /  22.2 km/h 83 % 0.00 in /  0 mm
18:35 58.1 °F /  14.5 °C 53.0 °F /  11.7 °C 30.12 in /  1019.9 hPa North 7.0 mph /  11.3 km/h 9.2 mph /  14.8 km/h 83 % 0.00 in /  0 mm
18:40 58.1 °F /  14.5 °C 53.0 °F /  11.7 °C 30.12 in /  1019.9 hPa North 11.4 mph /  18.3 km/h 13.8 mph /  22.2 km/h 83 % 0.00 in /  0 mm
18:45 58.0 °F /  14.4 °C 52.9 °F /  11.6 °C 30.12 in /  1019.9 hPa NNE 6.0 mph /  9.7 km/h 10.0 mph /  16.1 km/h 83 % 0.00 in /  0 mm
18:50 58.0 °F /  14.4 °C 52.9 °F /  11.6 °C 30.12 in /  1019.9 hPa NNE 7.2 mph /  11.6 km/h 11.5 mph /  18.5 km/h 83 % 0.00 in /  0 mm
18:55 57.9 °F /  14.4 °C 53.1 °F /  11.7 °C 30.13 in /  1020.2 hPa NNE 6.1 mph /  9.8 km/h 10.0 mph /  16.1 km/h 84 % 0.00 in /  0 mm
19:01 57.8 °F /  14.3 °C 52.7 °F /  11.5 °C 30.13 in /  1020.2 hPa NNE 6.5 mph /  10.5 km/h 11.5 mph /  18.5 km/h 83 % 0.00 in /  0 mm
19:05 57.7 °F /  14.3 °C 52.6 °F /  11.4 °C 30.14 in /  1020.5 hPa North 6.0 mph /  9.7 km/h 16.0 mph /  25.7 km/h 83 % 0.00 in /  0 mm
19:11 57.7 °F /  14.3 °C 52.6 °F /  11.4 °C 30.14 in /  1020.5 hPa NNE 9.0 mph /  14.5 km/h 14.0 mph /  22.5 km/h 83 % 0.00 in /  0 mm
19:15 57.6 °F /  14.2 °C 52.5 °F /  11.4 °C 30.14 in /  1020.5 hPa NNE 9.0 mph /  14.5 km/h 17.0 mph /  27.4 km/h 83 % 0.00 in /  0 mm
19:20 57.5 °F /  14.2 °C 52.4 °F /  11.3 °C 30.14 in /  1020.5 hPa North 7.0 mph /  11.3 km/h 15.0 mph /  24.1 km/h 83 % 0.00 in /  0 mm
19:26 57.4 °F /  14.1 °C 52.3 °F /  11.3 °C 30.14 in /  1020.5 hPa NNE 6.0 mph /  9.7 km/h 15.0 mph /  24.1 km/h 83 % 0.00 in /  0 mm
19:27 57.3 °F /  14.1 °C 52.5 °F /  11.4 °C 30.14 in /  1020.5 hPa NNE 6.4 mph /  10.3 km/h 13.8 mph /  22.2 km/h 84 % 0.00 in /  0 mm
19:32 57.3 °F /  14.1 °C 52.2 °F /  11.2 °C 30.14 in /  1020.5 hPa NNE 8.8 mph /  14.2 km/h 13.8 mph /  22.2 km/h 83 % 0.00 in /  0 mm
19:38 57.1 °F /  13.9 °C 52.0 °F /  11.1 °C 30.15 in /  1020.9 hPa NNE 7.9 mph /  12.7 km/h 11.5 mph /  18.5 km/h 83 % 0.00 in /  0 mm
19:43 56.9 °F /  13.8 °C 52.1 °F /  11.2 °C 30.15 in /  1020.9 hPa NNE 6.4 mph /  10.3 km/h 12.7 mph /  20.4 km/h 84 % 0.00 in /  0 mm
19:48 56.8 °F /  13.8 °C 52.0 °F /  11.1 °C 30.15 in /  1020.9 hPa NNE 8.5 mph /  13.7 km/h 12.7 mph /  20.4 km/h 84 % 0.00 in /  0 mm
19:53 56.8 °F /  13.8 °C 52.0 °F /  11.1 °C 30.16 in /  1021.2 hPa North 6.5 mph /  10.5 km/h 11.5 mph /  18.5 km/h 84 % 0.00 in /  0 mm
19:58 56.7 °F /  13.7 °C 51.9 °F /  11.1 °C 30.16 in /  1021.2 hPa NNE 5.4 mph /  8.7 km/h 14.0 mph /  22.5 km/h 84 % 0.00 in /  0 mm
20:03 56.6 °F /  13.7 °C 51.8 °F /  11 °C 30.16 in /  1021.2 hPa NE 8.0 mph /  12.9 km/h 15.0 mph /  24.1 km/h 84 % 0.00 in /  0 mm
20:08 56.6 °F /  13.7 °C 51.8 °F /  11 °C 30.16 in /  1021.2 hPa North 7.0 mph /  11.3 km/h 11.5 mph /  18.5 km/h 84 % 0.00 in /  0 mm
20:13 56.6 °F /  13.7 °C 52.1 °F /  11.2 °C 30.17 in /  1021.6 hPa North 6.9 mph /  11.1 km/h 10.4 mph /  16.7 km/h 85 % 0.00 in /  0 mm
20:18 56.5 °F /  13.6 °C 51.7 °F /  10.9 °C 30.16 in /  1021.2 hPa ENE 9.4 mph /  15.1 km/h 13.0 mph /  20.9 km/h 84 % 0.00 in /  0 mm
20:23 56.4 °F /  13.6 °C 51.6 °F /  10.9 °C 30.17 in /  1021.6 hPa NNE 9.5 mph /  15.3 km/h 12.7 mph /  20.4 km/h 84 % 0.00 in /  0 mm
20:28 56.4 °F /  13.6 °C 51.6 °F /  10.9 °C 30.17 in /  1021.6 hPa NNE 10.6 mph /  17.1 km/h 18.4 mph /  29.6 km/h 84 % 0.00 in /  0 mm
20:33 56.3 °F /  13.5 °C 51.5 °F /  10.8 °C 30.18 in /  1021.9 hPa NE 6.7 mph /  10.8 km/h 14.0 mph /  22.5 km/h 84 % 0.00 in /  0 mm
20:39 56.3 °F /  13.5 °C 51.5 °F /  10.8 °C 30.17 in /  1021.6 hPa North 7.3 mph /  11.7 km/h 11.5 mph /  18.5 km/h 84 % 0.00 in /  0 mm
20:44 56.2 °F /  13.4 °C 51.4 °F /  10.8 °C 30.17 in /  1021.6 hPa NNE 8.6 mph /  13.8 km/h 13.8 mph /  22.2 km/h 84 % 0.00 in /  0 mm
20:49 56.2 °F /  13.4 °C 51.4 °F /  10.8 °C 30.18 in /  1021.9 hPa NNE 10.5 mph /  16.9 km/h 17.3 mph /  27.8 km/h 84 % 0.00 in /  0 mm
20:54 56.1 °F /  13.4 °C 51.3 °F /  10.7 °C 30.18 in /  1021.9 hPa NNE 6.2 mph /  10 km/h 15.0 mph /  24.1 km/h 84 % 0.00 in /  0 mm
20:59 56.0 °F /  13.3 °C 51.6 °F /  10.9 °C 30.18 in /  1021.9 hPa North 7.3 mph /  11.7 km/h 10.0 mph /  16.1 km/h 85 % 0.00 in /  0 mm
21:04 56.0 °F /  13.3 °C 51.6 °F /  10.9 °C 30.18 in /  1021.9 hPa NNE 8.0 mph /  12.9 km/h 17.0 mph /  27.4 km/h 85 % 0.00 in /  0 mm
21:09 56.0 °F /  13.3 °C 51.6 °F /  10.9 °C 30.19 in /  1022.2 hPa NNE 6.1 mph /  9.8 km/h 9.0 mph /  14.5 km/h 85 % 0.00 in /  0 mm
21:14 56.0 °F /  13.3 °C 51.6 °F /  10.9 °C 30.19 in /  1022.2 hPa NNE 7.9 mph /  12.7 km/h 16.1 mph /  25.9 km/h 85 % 0.00 in /  0 mm
21:19 55.9 °F /  13.3 °C 51.1 °F /  10.6 °C 30.18 in /  1021.9 hPa NE 6.7 mph /  10.8 km/h 11.5 mph /  18.5 km/h 84 % 0.00 in /  0 mm
21:24 55.9 °F /  13.3 °C 51.1 °F /  10.6 °C 30.18 in /  1021.9 hPa North 6.6 mph /  10.6 km/h 12.7 mph /  20.4 km/h 84 % 0.00 in /  0 mm
21:29 55.9 °F /  13.3 °C 51.5 °F /  10.8 °C 30.19 in /  1022.2 hPa NNE 8.9 mph /  14.3 km/h 15.0 mph /  24.1 km/h 85 % 0.00 in /  0 mm
21:34 55.9 °F /  13.3 °C 51.5 °F /  10.8 °C 30.19 in /  1022.2 hPa NE 7.6 mph /  12.2 km/h 13.8 mph /  22.2 km/h 85 % 0.00 in /  0 mm
21:39 55.8 °F /  13.2 °C 51.0 °F /  10.6 °C 30.19 in /  1022.2 hPa NNE 6.3 mph /  10.1 km/h 13.8 mph /  22.2 km/h 84 % 0.00 in /  0 mm
21:44 55.7 °F /  13.2 °C 50.9 °F /  10.5 °C 30.19 in /  1022.2 hPa NNE 7.6 mph /  12.2 km/h 11.5 mph /  18.5 km/h 84 % 0.00 in /  0 mm
21:49 55.6 °F /  13.1 °C 51.2 °F /  10.7 °C 30.19 in /  1022.2 hPa North 7.3 mph /  11.7 km/h 15.0 mph /  24.1 km/h 85 % 0.00 in /  0 mm
21:54 55.6 °F /  13.1 °C 51.2 °F /  10.7 °C 30.19 in /  1022.2 hPa NNE 8.6 mph /  13.8 km/h 11.5 mph /  18.5 km/h 85 % 0.00 in /  0 mm
21:59 55.5 °F /  13.1 °C 51.1 °F /  10.6 °C 30.19 in /  1022.2 hPa NNE 6.8 mph /  10.9 km/h 13.8 mph /  22.2 km/h 85 % 0.00 in /  0 mm
22:04 55.5 °F /  13.1 °C 51.1 °F /  10.6 °C 30.19 in /  1022.2 hPa NNE 5.6 mph /  9 km/h 9.2 mph /  14.8 km/h 85 % 0.00 in /  0 mm
22:09 55.5 °F /  13.1 °C 51.1 °F /  10.6 °C 30.20 in /  1022.6 hPa NNE 9.8 mph /  15.8 km/h 14.0 mph /  22.5 km/h 85 % 0.00 in /  0 mm
22:14 55.5 °F /  13.1 °C 51.1 °F /  10.6 °C 30.19 in /  1022.2 hPa NNW 6.7 mph /  10.8 km/h 11.5 mph /  18.5 km/h 85 % 0.00 in /  0 mm
22:20 55.4 °F /  13 °C 51.0 °F /  10.6 °C 30.20 in /  1022.6 hPa North 7.5 mph /  12.1 km/h 12.7 mph /  20.4 km/h 85 % 0.00 in /  0 mm
22:25 55.4 °F /  13 °C 51.0 °F /  10.6 °C 30.20 in /  1022.6 hPa NNE 6.8 mph /  10.9 km/h 12.7 mph /  20.4 km/h 85 % 0.00 in /  0 mm
22:30 55.3 °F /  12.9 °C 50.9 °F /  10.5 °C 30.20 in /  1022.6 hPa North 7.2 mph /  11.6 km/h 14.0 mph /  22.5 km/h 85 % 0.00 in /  0 mm
22:35 55.3 °F /  12.9 °C 50.9 °F /  10.5 °C 30.20 in /  1022.6 hPa NNE 5.9 mph /  9.5 km/h 11.0 mph /  17.7 km/h 85 % 0.00 in /  0 mm
22:40 55.2 °F /  12.9 °C 50.8 °F /  10.4 °C 30.20 in /  1022.6 hPa NNE 4.8 mph /  7.7 km/h 10.4 mph /  16.7 km/h 85 % 0.00 in /  0 mm
22:45 55.1 °F /  12.8 °C 50.7 °F /  10.4 °C 30.20 in /  1022.6 hPa NE 6.5 mph /  10.5 km/h 11.5 mph /  18.5 km/h 85 % 0.00 in /  0 mm
22:50 55.0 °F /  12.8 °C 50.6 °F /  10.3 °C 30.20 in /  1022.6 hPa NNE 6.7 mph /  10.8 km/h 11.5 mph /  18.5 km/h 85 % 0.00 in /  0 mm
22:55 55.0 °F /  12.8 °C 50.6 °F /  10.3 °C 30.20 in /  1022.6 hPa NE 4.0 mph /  6.4 km/h 9.2 mph /  14.8 km/h 85 % 0.00 in /  0 mm
23:00 55.0 °F /  12.8 °C 50.6 °F /  10.3 °C 30.21 in /  1022.9 hPa NNE 4.9 mph /  7.9 km/h 11.5 mph /  18.5 km/h 85 % 0.00 in /  0 mm
23:05 54.9 °F /  12.7 °C 50.8 °F /  10.4 °C 30.21 in /  1022.9 hPa NNE 6.2 mph /  10 km/h 8.1 mph /  13 km/h 86 % 0.00 in /  0 mm
23:11 54.9 °F /  12.7 °C 50.8 °F /  10.4 °C 30.21 in /  1022.9 hPa ENE 4.0 mph /  6.4 km/h 9.2 mph /  14.8 km/h 86 % 0.00 in /  0 mm
23:16 54.9 °F /  12.7 °C 50.8 °F /  10.4 °C 30.21 in /  1022.9 hPa North 3.9 mph /  6.3 km/h 8.0 mph /  12.9 km/h 86 % 0.00 in /  0 mm
23:21 54.9 °F /  12.7 °C 50.8 °F /  10.4 °C 30.21 in /  1022.9 hPa NNE 4.1 mph /  6.6 km/h 7.0 mph /  11.3 km/h 86 % 0.00 in /  0 mm
23:26 54.9 °F /  12.7 °C 50.8 °F /  10.4 °C 30.21 in /  1022.9 hPa NE 6.2 mph /  10 km/h 16.1 mph /  25.9 km/h 86 % 0.00 in /  0 mm
23:31 54.9 °F /  12.7 °C 50.8 °F /  10.4 °C 30.21 in /  1022.9 hPa NE 4.9 mph /  7.9 km/h 10.4 mph /  16.7 km/h 86 % 0.00 in /  0 mm
23:36 55.0 °F /  12.8 °C 50.9 °F /  10.5 °C 30.21 in /  1022.9 hPa NNE 5.2 mph /  8.4 km/h 10.4 mph /  16.7 km/h 86 % 0.00 in /  0 mm
23:41 55.0 °F /  12.8 °C 50.9 °F /  10.5 °C 30.22 in /  1023.2 hPa NNE 3.5 mph /  5.6 km/h 5.8 mph /  9.3 km/h 86 % 0.00 in /  0 mm
23:46 55.0 °F /  12.8 °C 50.9 °F /  10.5 °C 30.22 in /  1023.2 hPa NNE 2.4 mph /  3.9 km/h 4.6 mph /  7.4 km/h 86 % 0.00 in /  0 mm
23:51 55.0 °F /  12.8 °C 50.9 °F /  10.5 °C 30.21 in /  1022.9 hPa NNE 2.2 mph /  3.5 km/h 5.8 mph /  9.3 km/h 86 % 0.00 in /  0 mm
23:56 55.1 °F /  12.8 °C 51.0 °F /  10.6 °C 30.21 in /  1022.9 hPa NNE 4.0 mph /  6.4 km/h 5.8 mph /  9.3 km/h 86 % 0.00 in /  0 mm
23:57 55.1 °F /  12.8 °C 51.0 °F /  10.6 °C 30.21 in /  1022.9 hPa North 5.7 mph /  9.2 km/h 9.2 mph /  14.8 km/h 86 % 0.00 in /  0 mm
Crab Meadow Weather
Compliments of Weather Underground - 3 mb

Script developed by  Jim McMurry - jmcmurry@mwt.net Adapted for the template by  Wim van der Kuil - Leuven-Template.eu

Recycling: The average household throws away 13,000 separate pieces of paper each year. Most is packaging and junk mail.